Location: Ottawa
(45.4170°N, 75.7000°W)
Time: 08:00:06
(UTC-04:00)

Iridium 91 - Visible Passes

Search period start: 24 October 2014 00:00
Search period end: 02 November 2014 23:00
Orbit: 775 x 780 km, 86.4° (Epoch: 23 October)

Date Brightness Start Highest point End Pass type
(mag) Time Alt. Az. Time Alt. Az. Time Alt. Az.
28 Oct 8.5 06:40:50 10° NE 06:43:13 13° ENE 06:45:35 10° E visible
28 Oct 8.2 21:28:30 11° N 21:28:30 11° N 21:28:42 10° N visible
29 Oct 7.9 20:54:45 13° N 20:54:45 13° N 20:55:20 10° N visible
30 Oct 7.6 20:20:53 15° NNE 20:20:53 15° NNE 20:21:43 10° N visible
30 Oct 8.5 22:01:19 10° NNW 22:01:19 10° NNW 22:01:20 10° NNW visible
31 Oct 8.3 06:39:59 10° NNE 06:43:33 18° ENE 06:47:06 10° ESE visible
31 Oct 7.4 19:46:53 15° NNE 19:46:53 15° NNE 19:47:52 10° NNE visible
31 Oct 7.9 21:27:19 16° NNW 21:27:19 16° NNW 21:28:32 10° NNW visible
01 Nov 8.9 06:08:59 10° ENE 06:09:34 10° ENE 06:10:08 10° ENE visible
01 Nov 7.3 19:12:36 14° NE 19:12:36 14° NE 19:13:36 10° NNE visible
01 Nov 7.2 20:45:07 10° SSW 20:53:00 26° NNW 20:55:20 10° N visible
02 Nov 7.3 17:37:20 11° ENE 17:37:20 11° ENE 17:38:08 10° ENE visible
02 Nov 5.6 19:11:25 10° S 19:17:30 63° NNE 19:21:52 10° N visible
02 Nov 8.3 20:55:42 10° W 20:58:05 13° WNW 21:00:28 10° NW visible
